TimeEDT,TemperatureF,Dew PointF,Humidity,Sea Level PressureIn,VisibilityMPH,Wind Direction,Wind SpeedMPH,Gust SpeedMPH,PrecipitationIn,Events,Conditions,WindDirDegrees,DateUTC
12:15 AM,61.2,58.1,90,30.02,10.0,South,6.9,-,N/A,,Clear,170,2013-07-05 04:15:00
12:34 AM,61.3,58.1,89,30.02,10.0,South,6.9,-,N/A,,Clear,170,2013-07-05 04:34:00
12:55 AM,61.2,58.1,90,30.01,10.0,South,9.2,-,N/A,,Clear,190,2013-07-05 04:55:00
1:15 AM,61.7,58.5,89,30.02,10.0,South,10.4,-,N/A,,Clear,190,2013-07-05 05:15:00
1:35 AM,61.7,59.0,91,30.02,10.0,South,6.9,-,N/A,,Clear,190,2013-07-05 05:35:00
1:55 AM,61.2,59.2,93,30.02,10.0,South,6.9,-,N/A,,Clear,190,2013-07-05 05:55:00
2:15 AM,61.3,59.4,93,30.02,7.0,South,9.2,-,N/A,,Clear,190,2013-07-05 06:15:00
2:35 AM,61.3,59.9,95,30.01,7.0,South,8.1,-,N/A,,Clear,190,2013-07-05 06:35:00
2:55 AM,61.7,59.9,94,30.01,7.0,SSW,8.1,-,N/A,,Clear,200,2013-07-05 06:55:00
3:14 AM,61.7,59.9,94,30.01,7.0,South,8.1,-,N/A,,Clear,190,2013-07-05 07:14:00
3:35 AM,61.3,59.9,95,30.02,7.0,South,6.9,-,N/A,,Clear,190,2013-07-05 07:35:00
3:55 AM,61.7,60.1,94,30.01,7.0,South,6.9,-,N/A,,Clear,180,2013-07-05 07:55:00
4:14 AM,61.7,60.1,94,30.01,5.0,SSW,6.9,-,N/A,,Clear,200,2013-07-05 08:14:00
4:35 AM,61.0,59.9,96,30.01,5.0,SSW,3.5,-,N/A,,Clear,200,2013-07-05 08:35:00
4:54 AM,59.9,59.2,97,30.00,5.0,South,3.5,-,N/A,,Clear,180,2013-07-05 08:54:00
5:15 AM,59.9,59.2,97,30.01,4.0,South,3.5,-,N/A,,Clear,190,2013-07-05 09:15:00
5:35 AM,59.9,59.2,97,30.00,3.0,South,3.5,-,N/A,,Clear,190,2013-07-05 09:35:00
5:54 AM,60.3,59.9,99,30.00,2.0,SSW,6.9,-,N/A,,Clear,200,2013-07-05 09:54:00
6:15 AM,60.8,59.9,97,30.01,2.5,SSW,4.6,-,N/A,,Clear,200,2013-07-05 10:15:00
6:35 AM,60.8,60.3,98,30.01,2.5,SSW,6.9,-,N/A,,Clear,200,2013-07-05 10:35:00
6:55 AM,61.2,60.8,99,30.01,2.0,South,6.9,-,N/A,,Clear,190,2013-07-05 10:55:00
7:15 AM,61.7,60.8,97,30.02,2.0,SSW,8.1,-,N/A,,Clear,200,2013-07-05 11:15:00
7:34 AM,61.9,61.0,97,30.02,2.5,SSW,8.1,-,N/A,,Clear,200,2013-07-05 11:34:00
7:55 AM,62.8,61.5,96,30.02,4.0,SSW,6.9,-,N/A,,Clear,200,2013-07-05 11:55:00
8:15 AM,63.5,61.5,93,30.02,4.0,SSW,8.1,-,N/A,,Clear,210,2013-07-05 12:15:00
8:34 AM,64.4,61.7,91,30.03,5.0,SSW,6.9,-,N/A,,Clear,210,2013-07-05 12:34:00
8:55 AM,65.1,61.9,89,30.03,7.0,SSW,6.9,-,N/A,,Clear,210,2013-07-05 12:55:00
9:15 AM,65.8,61.9,87,30.04,7.0,SSW,8.1,-,N/A,,Clear,200,2013-07-05 13:15:00
9:35 AM,66.0,61.9,86,30.04,7.0,South,6.9,-,N/A,,Clear,180,2013-07-05 13:35:00
9:55 AM,66.4,61.9,85,30.04,7.0,South,6.9,-,N/A,,Clear,180,2013-07-05 13:55:00
10:14 AM,66.4,61.5,84,30.04,7.0,South,8.1,-,N/A,,Clear,180,2013-07-05 14:14:00
10:35 AM,66.4,61.5,84,30.04,7.0,South,9.2,-,N/A,,Clear,190,2013-07-05 14:35:00
10:55 AM,67.5,62.2,83,30.04,7.0,South,9.2,-,N/A,,Clear,190,2013-07-05 14:55:00
11:15 AM,67.5,62.1,83,30.04,7.0,South,12.7,-,N/A,,Clear,190,2013-07-05 15:15:00
11:35 AM,68.2,62.2,81,30.04,7.0,South,12.7,-,N/A,,Clear,190,2013-07-05 15:35:00
11:55 AM,68.5,62.6,81,30.04,7.0,South,12.7,18.4,N/A,,Clear,180,2013-07-05 15:55:00
12:15 PM,69.4,63.1,80,30.04,7.0,South,9.2,17.3,N/A,,Clear,190,2013-07-05 16:15:00
12:35 PM,68.7,62.8,81,30.04,7.0,South,10.4,-,N/A,,Clear,190,2013-07-05 16:35:00
12:54 PM,68.0,62.4,82,30.03,7.0,SSW,10.4,16.1,N/A,,Clear,200,2013-07-05 16:54:00
1:15 PM,68.2,62.2,81,30.03,5.0,SSW,11.5,16.1,N/A,,Haze,210,2013-07-05 17:15:00
1:35 PM,69.3,62.8,80,30.03,7.0,South,10.4,-,N/A,,Clear,190,2013-07-05 17:35:00
1:54 PM,68.4,62.2,81,30.03,5.0,South,11.5,-,N/A,,Haze,170,2013-07-05 17:54:00
2:15 PM,68.9,62.8,81,30.03,5.0,SW,9.2,-,N/A,,Haze,220,2013-07-05 18:15:00
2:35 PM,68.2,62.2,81,30.03,5.0,South,9.2,-,N/A,,Haze,170,2013-07-05 18:35:00
2:55 PM,68.7,63.0,82,30.02,5.0,South,8.1,-,N/A,,Haze,170,2013-07-05 18:55:00
3:15 PM,68.7,62.4,80,30.02,5.0,South,8.1,-,N/A,,Haze,190,2013-07-05 19:15:00
3:35 PM,68.7,62.2,80,30.02,5.0,SSW,8.1,16.1,N/A,,Haze,210,2013-07-05 19:35:00
3:55 PM,68.9,62.2,79,30.01,5.0,SW,9.2,16.1,N/A,,Haze,220,2013-07-05 19:55:00
4:15 PM,69.8,62.8,78,30.01,5.0,SW,6.9,-,N/A,,Haze,220,2013-07-05 20:15:00
4:34 PM,68.7,62.4,80,30.01,5.0,SSW,8.1,-,N/A,,Haze,210,2013-07-05 20:34:00
4:55 PM,68.4,61.9,80,30.01,5.0,SW,11.5,17.3,N/A,,Haze,220,2013-07-05 20:55:00
5:15 PM,68.4,61.7,79,30.00,5.0,SSW,6.9,-,N/A,,Haze,200,2013-07-05 21:15:00
5:34 PM,68.0,61.5,80,30.00,5.0,SSW,5.8,16.1,N/A,,Haze,210,2013-07-05 21:34:00
5:55 PM,68.4,61.5,79,29.99,7.0,South,10.4,-,N/A,,Clear,190,2013-07-05 21:55:00
6:15 PM,68.5,61.5,78,29.99,7.0,SSW,8.1,-,N/A,,Clear,200,2013-07-05 22:15:00
6:35 PM,68.0,61.5,80,29.98,7.0,SSW,8.1,-,N/A,,Clear,210,2013-07-05 22:35:00
6:55 PM,67.6,61.0,79,29.98,7.0,SW,6.9,-,N/A,,Clear,220,2013-07-05 22:55:00
7:15 PM,67.5,60.8,79,29.98,10.0,SSW,8.1,-,N/A,,Clear,210,2013-07-05 23:15:00
7:35 PM,67.1,60.8,80,29.98,7.0,SSW,9.2,-,N/A,,Clear,210,2013-07-05 23:35:00
7:55 PM,66.6,60.8,82,29.98,7.0,SSW,8.1,-,N/A,,Clear,210,2013-07-05 23:55:00
8:15 PM,65.8,60.8,84,29.98,7.0,SW,6.9,-,N/A,,Clear,220,2013-07-06 00:15:00
8:35 PM,65.3,60.6,85,29.98,7.0,SSW,8.1,-,N/A,,Clear,200,2013-07-06 00:35:00
8:55 PM,65.1,60.3,84,29.98,10.0,SSW,6.9,-,N/A,,Clear,210,2013-07-06 00:55:00
9:15 PM,64.4,59.9,85,29.98,10.0,SSW,4.6,-,N/A,,Clear,210,2013-07-06 01:15:00
9:34 PM,64.4,59.4,84,29.98,10.0,SSW,5.8,-,N/A,,Clear,210,2013-07-06 01:34:00
9:55 PM,64.4,58.3,80,29.98,10.0,SSW,3.5,-,N/A,,Clear,210,2013-07-06 01:55:00
10:15 PM,63.9,57.6,80,29.98,10.0,SW,4.6,-,N/A,,Clear,220,2013-07-06 02:15:00
10:34 PM,63.9,56.8,78,29.98,10.0,SW,5.8,-,N/A,,Clear,220,2013-07-06 02:34:00
10:55 PM,63.9,56.7,77,29.98,10.0,SSW,5.8,-,N/A,,Clear,210,2013-07-06 02:55:00
11:15 PM,63.5,56.8,79,29.98,10.0,SW,4.6,-,N/A,,Clear,220,2013-07-06 03:15:00
11:35 PM,63.5,56.8,79,29.98,10.0,SW,4.6,-,N/A,,Clear,220,2013-07-06 03:35:00
11:55 PM,63.3,56.7,79,29.98,10.0,SW,5.8,-,N/A,,Clear,220,2013-07-06 03:55:00